Location: Inworth
(51.8167°N, 0.7333°E)
Time: 21:57:08
(UTC+00:00)

Daily predictions for brighter satellites

Satellite Brightness Start Highest point End
(mag) Time Altitude Azimuth Time Altitude Azimuth Time Altitude Azimuth
Cosmos 2219 4.3 16:22:39 10° NNW 16:27:13 24° NE 16:31:47 10° E
Thor Agena Rocket 3.8 16:23:20 10° SE 16:28:19 49° ENE 16:33:16 10° N
CENTAUR R/B 2.8 16:22:51 10° WSW 16:28:40 69° NW 16:36:09 10° NE
USA 290 2.2 16:28:41 10° NNW 16:31:57 64° ENE 16:35:10 10° SE
Cosmos 1484 Rocket 2.4 16:29:20 10° SSE 16:32:49 67° ENE 16:36:18 10° N
SL-16 R/B 2.7 16:27:00 10° NNE 16:33:10 57° ESE 16:39:14 10° S
Cosmos 1544 Rocket 3.9 16:29:01 10° SSE 16:33:15 48° E 16:37:31 10° NNE
Cosmos 1844 Rocket 4.4 16:30:46 10° N 16:33:50 14° NNE 16:36:52 10° NE
Lacrosse 5 rocket 1.4 16:30:19 10° W 16:34:01 55° NNW 16:37:39 10° ENE
Cosmos 1980 Rocket 4.0 16:33:46 10° ESE 16:35:30 11° E 16:37:13 10° ENE
Iridium 51 3.7 16:35:32 10° S 16:38:41 87° E 16:41:55 10° N
BREEZE M DEB (TANK) 4.2 16:37:57 10° S 16:39:15 13° SSE 16:40:22 10° SE
Lacrosse 4 Rocket 2.5 16:35:30 10° WSW 16:39:16 36° NW 16:43:00 10° NNE
Meteor 1-27 4.4 16:35:48 10° SSW 16:41:37 83° WNW 16:47:24 10° NNE
CORIOLIS 4.2 16:37:19 10° SE 16:42:31 56° ENE 16:47:45 10° N
Cosmos 2263 Rocket 2.8 16:37:27 10° NNW 16:42:36 34° NE 16:47:45 10° ESE
Cosmos 2228 3.1 16:39:47 10° SSW 16:44:02 81° WNW 16:48:18 10° N
Cosmos 1777 Rocket 4.5 16:39:25 10° S 16:44:20 43° ESE 16:49:17 10° NE
CZ-2D R/B 3.6 16:46:23 10° SE 16:49:08 28° ENE 16:51:53 10° N
Okean 1-7 Rocket 3.9 16:45:56 10° N 16:50:09 43° ENE 16:54:19 10° SE
Cosmos 1455 Rocket 4.4 16:47:14 10° SW 16:51:19 39° WNW 16:55:27 10° N
Cosmos 1602 Rocket 3.5 16:47:46 10° N 16:52:09 63° ENE 16:56:28 10° SSE
IRIDIUM 114 4.5 16:47:03 10° N 16:52:10 52° E 16:57:15 10° SSE
Cosmos 1461 3.3 16:51:53 10° SSW 16:55:32 39° ESE 16:58:30 15° ENE
Cosmos 1943 Rocket 4.3 16:56:01 10° NNW 16:57:17 11° N 16:58:30 10° N
Cosmos 1933 4.1 16:54:47 10° SSE 16:58:06 29° E 17:01:22 11° NNE
Cosmos 2227 Rocket 2.2 16:53:42 10° NNW 16:59:20 62° NE 17:04:55 10° SE
USA 215 3.5 16:53:50 12° ENE 16:59:54 59° N 17:06:19 10° W
Cosmos 1634 Rocket 4.3 16:54:20 10° SSW 17:00:30 70° WNW 17:06:41 10° N
IRS-1C 4.2 16:55:19 10° SE 17:00:31 58° ENE 17:05:45 10° N
IRIDIUM 103 4.3 16:56:10 10° N 17:01:22 61° E 17:06:32 10° SSE
YAOGAN 1 3.8 16:58:21 10° ESE 17:01:25 20° ENE 17:04:30 10° NNE
Cosmos 1743 2.3 16:59:28 10° NNW 17:02:44 81° W 17:05:57 10° S
NOSS 7 (H) 4.0 17:00:03 10° NW 17:02:58 88° NE 17:06:04 10° SE
Cosmos 2369 Rocket 4.0 16:59:34 10° W 17:04:00 23° NW 17:08:28 10° NNE
Cosmos 1486 Rocket 4.0 16:58:49 10° SSW 17:04:00 75° ESE 17:09:16 10° NNE
SJ-12 3.9 17:01:37 10° SE 17:05:14 47° ENE 17:08:55 10° N
Cosmos 2151 2.8 17:02:06 10° N 17:06:17 83° E 17:10:27 10° SSE
Cosmos 2360 4.2 17:02:25 10° SSW 17:08:08 77° ESE 17:13:47 11° NNE
Cosmos 1655 Rocket 4.2 17:06:00 10° N 17:12:00 46° ENE 17:17:58 10° SE
Cosmos 2279 Rocket 4.1 17:05:51 10° SSW 17:12:04 80° W 17:18:21 10° N
Cosmos 1867 3.8 17:08:44 10° NW 17:14:12 78° SW 17:19:38 10° SSE
IGS 5A 4.1 17:10:24 10° S 17:14:17 56° W 17:18:14 10° NNW
Cosmos 1697 Rocket 3.0 17:09:40 10° S 17:14:58 45° ESE 17:19:15 15° NE
Cosmos 990 Rocket 4.4 17:10:42 10° S 17:15:26 40° ESE 17:19:09 16° NE
Cosmos 1953 Rocket 4.1 17:11:46 10° N 17:15:54 36° ENE 17:20:00 10° SE
Cosmos 2278 Rocket 4.3 17:15:34 10° NNW 17:16:58 11° N 17:18:21 10° N
MOS 1 Rocket 3.5 17:13:10 10° SSE 17:18:02 60° ENE 17:23:12 10° N
SAR-Lupe-4 3.4 17:15:05 10° SSE 17:18:37 71° ENE 17:22:10 10° N
IRIDIUM 106 4.3 17:14:28 10° N 17:19:44 85° E 17:24:58 10° S
NOSS 2-2 (D) 3.4 17:20:26 10° WSW 17:23:31 47° NW 17:25:11 22° NNE
Cosmos 1782 3.4 17:20:32 10° SSW 17:24:02 49° WNW 17:27:33 10° N
Cosmos 1825 Rocket 3.4 17:20:59 10° N 17:25:21 69° ENE 17:29:39 10° SSE
ARIANE 5 R/B 2.5 17:20:20 10° SSE 17:25:25 88° ENE 17:30:36 10° NNW
Resurs 01 Rocket 3.7 17:29:46 11° NNE 17:29:46 11° NNE 17:30:06 10° NNE
SAR-Lupe-1 3.9 17:25:54 10° SSE 17:29:30 82° ENE 17:33:08 10° NNW
Cosmos 1680 Rocket 4.5 17:26:30 10° N 17:30:47 25° NE 17:31:45 24° ENE
Cosmos 2098 Rocket 3.8 17:28:00 10° SSW 17:32:15 60° WNW 17:37:17 10° N
USA 81 4.4 17:28:01 10° N 17:33:02 41° ENE 17:38:00 10° SE
Cosmos 1656 4.2 17:27:45 10° SW 17:33:19 59° NW 17:38:38 12° NNE
UNK 3.7 17:29:27 10° NNE 17:34:04 88° WNW 17:38:37 10° SSW
CZ-2D R/B 3.7 17:32:46 10° SE 17:36:44 43° ENE 17:40:40 10° N
NOSS 3-2 (A) 3.7 17:32:40 10° WSW 17:37:52 56° NW 17:42:25 19° NE
Gbstr 26 Del rocket 3.5 17:34:36 10° SW 17:38:21 37° SSE 17:39:37 28° ESE
NOSS 3-2 (C) 3.1 17:34:06 10° SW 17:39:14 84° SE 17:43:15 22° NE
IRAS Rocket 4.5 17:34:18 10° SE 17:39:26 43° ENE 17:44:35 10° N
SPOT 1/Viking Rocket 3.5 17:37:18 10° SSE 17:42:26 64° ENE 17:47:36 10° N
Cosmos 1076 Rocket 3.4 17:39:07 10° N 17:43:25 69° ENE 17:47:43 10° SSE
NOSS 2-2 (E) 3.7 17:41:00 10° WSW 17:43:59 39° NW 17:45:00 28° N
PSLV R/B 3.8 17:43:07 29° ESE 17:44:24 37° ENE 17:48:10 10° N
SMAP 4.0 17:40:02 10° S 17:44:32 50° W 17:49:06 10° NNW
[s.n.66845] 3.5 17:42:40 10° NNW 17:43:44 20° N 17:43:44 20° N
[s.n.66847] 3.5 17:43:07 10° NNW 17:44:11 20° N 17:44:11 20° N
Cosmos 2266 Rocket 4.4 17:39:51 10° NNW 17:45:56 64° W 17:51:54 10° S
[s.n.66846] 3.5 17:43:32 10° NNW 17:44:37 20° N 17:44:37 20° N
Cosmos 2082 3.9 17:40:59 10° NNW 17:46:34 50° NE 17:50:41 18° ESE
CZ-4C R/B 3.8 17:39:54 10° NW 17:46:39 54° SW 17:54:56 10° SSE
[s.n.66843] 3.5 17:44:05 10° NNW 17:45:08 20° N 17:45:08 20° N
[s.n.66844] 3.5 17:44:32 10° NNW 17:45:35 20° N 17:45:35 20° N
SJ-7 4.5 17:47:21 41° ENE 17:47:24 41° ENE 17:50:57 10° N
[s.n.66842] 3.5 17:45:03 10° NNW 17:46:06 20° N 17:46:06 20° N
COSMO-SKYMED 1 3.6 17:49:12 25° ESE 17:49:12 25° ESE 17:51:44 10° SSE
[s.n.66841] 3.5 17:45:31 10° NNW 17:46:33 20° NNW 17:46:33 20° NNW
SL-19 R/B 4.4 17:42:56 10° SE 17:48:10 50° ENE 17:53:42 10° N
[s.n.66840] 3.5 17:46:01 10° NNW 17:47:03 20° NNW 17:47:03 20° NNW
[s.n.66838] 3.5 17:46:30 10° NNW 17:47:32 20° NNW 17:47:32 20° NNW
Landsat 7 4.4 17:44:44 10° S 17:49:19 57° W 17:53:56 10° NNW
[s.n.66839] 3.5 17:47:00 10° NNW 17:48:01 20° NNW 17:48:01 20° NNW
IRS-P3 4.2 17:44:40 10° SSE 17:50:00 83° WSW 17:55:21 10° NNW
[s.n.66837] 3.6 17:47:27 10° NNW 17:48:28 19° NNW 17:48:28 19° NNW
SJ-6F 4.4 17:46:09 10° SSE 17:50:08 79° WSW 17:54:12 10° NNW
Cosmos 2058 Rocket 3.6 17:46:21 10° SSE 17:50:27 37° E 17:50:45 37° E
[s.n.66836] 3.6 17:47:57 10° NNW 17:48:58 19° NNW 17:48:58 19° NNW
[s.n.66835] 3.6 17:48:27 10° NNW 17:49:28 19° NNW 17:49:28 19° NNW
Cosmos 2297 Rocket 4.2 17:46:42 10° NW 17:51:37 31° WSW 17:56:29 10° SSW
[s.n.66834] 3.6 17:48:57 10° NNW 17:49:57 19° NNW 17:49:57 19° NNW
[s.n.66833] 3.6 17:49:24 10° NNW 17:50:23 19° NNW 17:50:23 19° NNW
[s.n.66832] 3.6 17:49:56 10° NNW 17:50:56 19° NNW 17:50:56 19° NNW
[s.n.66831] 3.6 17:50:22 10° NNW 17:51:20 19° NNW 17:51:20 19° NNW
[s.n.66830] 3.6 17:50:48 10° NNW 17:51:47 19° NNW 17:51:47 19° NNW
[s.n.66828] 3.6 17:51:13 10° NNW 17:52:12 19° NNW 17:52:12 19° NNW
[s.n.66829] 3.6 17:51:46 10° NNW 17:52:44 19° NNW 17:52:44 19° NNW
[s.n.66827] 3.7 17:52:18 10° NNW 17:53:15 19° NNW 17:53:15 19° NNW
[s.n.66826] 3.7 17:52:48 10° NNW 17:53:45 19° NNW 17:53:45 19° NNW
[s.n.66825] 3.7 17:53:14 10° NNW 17:54:11 19° NNW 17:54:11 19° NNW
[s.n.66824] 3.7 17:53:46 10° NNW 17:54:42 19° NNW 17:54:42 19° NNW
[s.n.66823] 3.7 17:54:17 10° NNW 17:55:13 19° NNW 17:55:13 19° NNW
[s.n.66822] 3.7 17:54:46 10° NNW 17:55:41 19° NNW 17:55:41 19° NNW
[s.n.66821] 3.7 17:55:14 10° NNW 17:56:10 19° NNW 17:56:10 19° NNW
Cosmos 1538 Rocket 3.9 17:53:44 10° NNW 17:59:02 87° ENE 18:04:23 10° SSE
Nadezhda 2 Rocket 4.5 17:55:05 10° N 18:01:06 53° ENE 18:07:02 10° SSE
Cosmos 1606 Rocket 3.8 17:57:08 10° SSW 18:01:32 70° WNW 18:05:40 12° N
Meteor 1-26 Rocket 4.3 17:59:14 10° SSE 18:04:20 45° E 18:05:35 38° ENE
Lacrosse 5 rocket 2.0 18:08:03 10° WNW 18:11:16 35° N 18:11:16 35° N
Cosmos 1553 Rocket 4.1 18:05:55 10° SSE 18:11:46 48° E 18:14:52 27° NNE
Cosmos 2219 3.1 18:06:27 10° NNW 18:12:14 83° ENE 18:17:57 10° SSE
GEOS 3 Rocket 3.8 18:09:53 31° NE 18:12:32 72° NW 18:17:54 10° SW
BREEZE-M DEB (TANK) 3.3 18:11:14 10° SW 18:12:05 23° SW 18:12:05 23° SW
Resurs 1-3 3.4 18:08:56 10° SSE 18:13:13 79° ENE 18:17:32 10° NNW
SL-16 R/B 4.0 18:10:57 10° N 18:16:28 35° WNW 18:21:58 10° WSW
Lacrosse 4 Rocket 3.8 18:16:49 10° NW 18:18:14 11° NNW 18:19:18 11° N
Cosmos 1980 Rocket 2.1 18:12:46 10° SSW 18:18:20 63° ESE 18:19:44 47° ENE
Cosmos 1844 Rocket 3.2 18:14:06 10° NNW 18:18:59 38° NE 18:18:59 38° NE
Cosmos 1354 Rocket 4.4 18:14:29 10° SW 18:19:42 61° WNW 18:22:53 23° NNE
CENTAUR R/B 3.7 18:14:32 10° WNW 18:20:33 36° N 18:24:02 25° NE
Meteor 2-20 4.4 18:16:01 10° S 18:22:12 88° W 18:28:24 10° N
USA 281 4.3 18:22:44 26° NNE 18:22:44 26° NNE 18:27:28 10° NNW
NOSS 2-3 (C) 3.8 18:21:24 10° SW 18:23:55 45° SSW 18:23:55 45° SSW
Spot 4 Rocket 4.0 18:19:57 10° SSE 18:25:03 80° WSW 18:30:13 10° NNW
Cosmos 1745 Rocket 4.2 18:19:29 10° N 18:24:48 44° NE 18:24:48 44° NE
Cosmos 1726 Rocket 4.3 18:20:54 10° SSW 18:25:28 57° WNW 18:28:51 17° N
Cosmos 2263 Rocket 2.7 18:21:16 10° NW 18:26:51 59° WSW 18:32:24 10° S
Cosmos 1898 Rocket 3.5 18:25:28 10° S 18:30:11 58° SE 18:30:11 58° SE
Cosmos 1244 Rocket 4.4 18:24:51 10° N 18:31:11 89° WSW 18:37:24 10° S
Cosmos 2369 4.1 18:25:55 10° S 18:30:42 45° SE 18:30:42 45° SE
Cosmos 2112 Rocket 4.5 18:26:49 10° NNW 18:30:44 43° NNE 18:30:44 43° NNE
Cosmos 1461 3.9 18:28:42 10° WSW 18:32:20 35° NW 18:32:37 35° NNW
Cosmos 44 Rocket 3.9 18:27:56 10° NW 18:32:08 43° NNE 18:32:08 43° NNE
YAOGAN 1 3.0 18:32:41 10° S 18:36:53 60° W 18:41:08 10° NNW
SKYMED 2 3.8 18:36:02 51° NNW 18:36:57 68° WNW 18:41:15 10° SSW
Cosmos-2242 3.4 18:33:13 10° S 18:36:35 55° SSW 18:36:35 55° SSW
Meteor 1-17 Rocket 4.5 18:32:02 10° N 18:37:39 78° ENE 18:40:26 31° SSE
USA 238 DEB 3.4 18:33:48 10° SW 18:39:56 75° SE 18:41:14 58° ENE
USA 238 3.4 18:33:55 10° SSW 18:40:03 74° SE 18:41:19 58° ENE
Cosmos 923 Rocket 3.8 18:35:42 10° NNW 18:40:56 88° ENE 18:41:32 71° SSE
USA 215 3.3 18:41:10 53° ENE 18:42:32 65° NNE 18:49:02 10° WNW
Cosmos 2227 Rocket 4.2 18:38:16 10° NW 18:42:59 28° WSW 18:47:41 10° SSW
Cosmos 372 Rocket 3.8 18:37:50 10° SSW 18:43:00 88° ESE 18:43:10 84° NE
Cosmos 1943 Rocket 4.3 18:41:20 10° N 18:42:28 12° N 18:42:28 12° N
Meteor 2-20 Rocket 4.4 18:37:42 10° S 18:43:56 85° W 18:48:13 20° N
SL-08 R/B 4.5 18:39:29 10° N 18:45:50 85° W 18:52:11 10° S
Cosmos 1937 Rocket 4.3 18:44:11 10° S 18:47:30 39° S 18:47:30 39° S
BREEZE-M DEB (TANK) 4.4 18:46:49 10° WNW 18:51:02 85° SSW 18:54:54 42° ESE
Cosmos 1386 Rocket 4.3 18:44:58 10° N 18:51:05 82° E 18:57:16 10° SSE
Cosmos 1697 Rocket 3.7 18:53:43 10° WSW 18:59:00 41° NW 19:00:59 31° N
Aureole 1 Rocket 3.7 18:55:00 10° SW 18:59:38 65° WNW 19:00:04 62° NNW
Resurs 01 Rocket 4.2 19:07:10 12° NNW 19:07:10 12° NNW 19:07:31 10° NNW
Cosmos 2278 Rocket 4.4 19:00:37 10° N 19:01:48 13° N 19:01:48 13° N
Cosmos 1680 Rocket 4.2 19:08:07 10° NNW 19:12:02 50° NW 19:12:02 50° NW
COSMOS 2455 4.3 19:10:26 10° SSW 19:12:49 24° S 19:12:49 24° S
NOSS 3-2 (C) 4.4 19:25:35 10° W 19:30:40 37° NNW 19:30:40 37° NNW
Cosmos 1980 Rocket 3.9 19:57:41 10° WSW 20:01:30 29° WNW 20:01:30 29° WNW
Cosmos 1844 Rocket 4.5 19:57:59 10° NW 20:00:39 27° NW 20:00:39 27° NW
CENTAUR R/B 4.1 20:06:23 10° NW 20:11:08 34° NNW 20:11:08 34° NNW
